CZ-3B DEB, 40159

Orbit data source: Space-Track

CZ-3B DEB, 40159 is space debris in HEO originally from a launch on Sat, 04 Sep 2010 UTC launched from the Xichang Space Center, China (XSC). Debris objects in space refer to the collection of defunct objects orbiting the Earth. Examples of debris include non-operational satellites, rocket bodies, and fragments generated from explosions, collisions, or faulty payload assembly.

Loading next visibility...
Identifier
40159, 2010-042L
Orbit
HEO
Last TLE update
7 months ago
Origin
Manufacturer
CALT
Mission
Spacecraft
Bus & Motor
Unknown
Mass
Unknown
Launch date (UTC)
2010-09-04 (15 years ago)
Launch vehicle
Unknown
Launch site
Xichang Space Center, China (XSC)
Object type
Payload
Rocket body
Debris
Shape & HBR
Unknown
Radar Cross Section
Medium (>0.1 m² and <1 m²)

Expand to show TLE details & history

TLE from 7 months ago
0 CZ-3B DEB
1 40159U 10042L   24325.99769251  .00000611  00000-0  10706-2 0  9994
2 40159  26.4157 225.0517 7121019 284.9312  11.7108  2.42561861105603
Epoch: 2024-11-20T23:56Z
TLE epoch observation values (Epoch: 2024-11-20T23:56:40.632Z)
Latitude
0.00057°
Longitude
165.44648°
Altitude
3,398.304 km
Speed
8.031 km/s
True Right ascension
15h 00m 24s
True Declination
0° 00' 02"
Sunlit
Object was in daylight at epoch
Visualization orbit readout
Latitude
-25.53299°
Longitude
-30.03861°
Altitude
33,355.247 km
Speed
1.736 km/s
Apparent Right ascension
02h 23m 18s
Apparent Declination
-28° 43' 50"
Sunlit
Object is in daylight
Visualization observer readout
Local Sidereal Time
17:52:44
Azimuth
92.065° ESE
Elevation
-45.989°
Doppler factor
1
Orbital elements
Apogee altitude
33,688.943 km
Perigee altitude
359.334 km
Semi-major axis
23,402.275 km
Eccentricity
0.7121
Inclination
26.4157°
RAAN
225.0517°
Arg. of periapsis
284.9312°
True anomaly
Unknown
Mean anomaly
11.7108°
Eccentric anomaly
Unknown
Mean motion
0.60626 °/min
Orbital period
593.81 mins
BSTAR
0.0010706
Loading maneuver chart data...
Loading SW <> Apogee altitude chart data...
Loading historical data...
Loading historical data...
Loading historical data...
Loading historical data...
Loading historical data...
Loading historical data...
Loading historical data...

CZ-3B DEB Visibility forecast

Observer location: undefined°, undefined°

Span
Click to sort rows by Start time (UTC) header in descending order
Start Az.
Max El. time (UTC)
Max El. Az.
Max El.
End time (UTC)
End Az.
297 mins2025-07-01 11:22:58.483Z236.862° WSW2025-07-01 12:06:58.483Z202.948° SW20.003°2025-07-01 16:19:58.483Z206.702° SW
|